SV1AAW Weather Reports


time (UTC)temp
F
wind
direction
speed
knots
gust
knots
rain 1hr
in
rain 24hr
in
rain mn
in
humidity
%
barometer
mb
20260906082544 82 8 3.5 7.0 0.00 0.00 0.00 48 1017.3
20260906081525 82 2 3.5 7.0 0.00 0.00 0.00 50 1017.5
20260906080521 81 11 3.5 7.0 0.00 0.00 0.00 47 1017.6
20260906075521 81 11 2.6 6.1 0.00 0.00 0.00 50 1017.7
20260906074518 80 355 2.6 6.1 0.00 0.00 0.00 52 1017.7
20260906073525 78 19 3.5 6.1 0.00 0.00 0.00 58 1017.4
20260906072517 78 12 2.6 5.2 0.00 0.00 0.00 59 1017.4
20260906071539 77 354 2.6 5.2 0.00 0.00 0.00 59 1017.4
20260906070525 77 7 1.7 3.5 0.00 0.00 0.00 57 1017.3
20260906065524 78 4 1.7 2.6 0.00 0.00 0.00 55 1017.2
20260906064525 78 15 0.9 2.6 0.00 0.00 0.00 54 1017.1
20260906063525 79 22 0.0 1.7 0.00 0.00 0.00 54 1017.0
20260906062516 78 43 0.9 1.7 0.00 0.00 0.00 56 1016.9
20260906061520 77 0.0 0.0 0.00 0.00 0.00 58 1016.8
20260906060522 77 43 0.9 1.7 0.00 0.00 0.00 61 1016.9
20260906055525 77 32 1.7 2.6 0.00 0.00 0.00 60 1016.9
20260906054523 77 33 0.9 1.7 0.00 0.00 0.00 59 1017.0
20260906053521 76 16 0.9 1.7 0.00 0.00 0.00 60 1016.8
20260906052542 77 21 0.9 1.7 0.00 0.00 0.00 59 1016.8
20260906051516 77 15 0.0 0.9 0.00 0.00 0.00 60 1016.6
20260906050519 76 0.0 0.0 0.00 0.00 0.00 62 1016.5
20260906045536 75 13 0.9 1.7 0.00 0.00 0.00 63 1016.6
20260906044520 74 348 0.9 1.7 0.00 0.00 0.00 54 1016.4
20260906043522 73 61 0.9 2.6 0.00 0.00 0.00 57 1016.1
20260906042541 73 0.0 0.0 0.00 0.00 0.00 48 1016.2
20260906041522 73 0.0 0.0 0.00 0.00 0.00 49 1016.1
20260906040524 73 0.0 0.0 0.00 0.00 0.00 51 1016.2
20260906035537 72 340 0.0 0.9 0.00 0.00 0.00 51 1016.1
20260906034521 72 0.0 0.0 0.00 0.00 0.00 50 1016.0
20260906033541 73 0.0 0.0 0.00 0.00 0.00 49 1016.0
20260906032517 73 0.0 0.0 0.00 0.00 0.00 49 1016.1
20260906031517 73 340 0.0 1.7 0.00 0.00 0.00 49 1015.9
20260906030524 73 0.0 0.0 0.00 0.00 0.00 50 1015.9
20260906025516 73 0.0 0.0 0.00 0.00 0.00 51 1015.9
20260906024520 72 0.0 0.0 0.00 0.00 0.00 52 1015.9
20260906023538 72 0.0 0.0 0.00 0.00 0.00 51 1015.8
20260906022523 73 0.0 0.0 0.00 0.00 0.00 50 1015.9
20260906021546 74 0.0 0.0 0.00 0.00 0.00 49 1015.8
20260906020536 74 0.0 0.0 0.00 0.00 0.00 49 1015.7
20260906015545 74 0.0 0.0 0.00 0.00 0.00 48 1015.7
20260906014525 75 0.0 0.0 0.00 0.00 0.00 46 1015.7
20260906013519 76 0.0 0.0 0.00 0.00 0.00 44 1015.6
20260906012524 76 341 0.9 1.7 0.00 0.00 0.00 43 1015.7
20260906011523 76 3 0.0 0.9 0.00 0.00 0.00 44 1015.6
20260906010523 76 6 0.0 1.7 0.00 0.00 0.00 44 1015.6
20260906005521 76 359 0.9 1.7 0.00 0.00 0.00 44 1015.6
20260906004536 76 342 0.9 2.6 0.00 0.00 0.00 45 1015.7
20260906003519 76 353 0.0 0.9 0.00 0.00 0.00 47 1015.6
20260906002520 76 13 0.9 0.9 0.00 0.00 0.00 47 1015.7
20260906001521 76 14 0.9 2.6 0.00 0.00 0.00 48 1015.7
20260906000526 76 11 1.7 3.5 0.00 0.00 0.00 47 1015.8
20260905235542 76 4 0.9 1.7 0.00 0.00 0.00 46 1015.8
20260905234517 76 355 1.7 2.6 0.00 0.00 0.00 46 1015.6
20260905233517 76 4 0.9 2.6 0.00 0.00 0.00 47 1015.7
20260905232525 76 341 0.9 1.7 0.00 0.00 0.00 47 1015.6
20260905231523 76 0.0 0.0 0.00 0.00 0.00 49 1015.7
20260905230522 76 351 0.0 0.9 0.00 0.00 0.00 51 1015.7
20260905225519 77 0.0 0.0 0.00 0.00 0.00 48 1015.8
20260905224523 77 359 0.0 1.7 0.00 0.00 0.00 50 1015.9
20260905223516 78 356 1.7 2.6 0.00 0.00 0.00 46 1015.9
20260905222542 79 357 1.7 3.5 0.00 0.00 0.00 41 1015.8
20260905221522 79 355 1.7 2.6 0.00 0.00 0.00 40 1015.8
20260905220540 80 346 3.5 6.1 0.00 0.00 0.00 38 1015.8
20260905215521 80 336 2.6 6.1 0.00 0.00 0.00 37 1015.7
20260905214544 80 340 2.6 6.1 0.00 0.00 0.00 36 1015.7
20260905213523 80 342 3.5 8.7 0.00 0.00 0.00 37 1015.8
20260905212521 80 346 2.6 7.8 0.00 0.00 0.00 38 1015.9
20260905211521 79 351 1.7 5.2 0.00 0.00 0.00 41 1016.0
20260905210525 80 14 1.7 2.6 0.00 0.00 0.00 40 1016.0
20260905205518 80 12 0.0 0.9 0.00 0.00 0.00 43 1015.9
20260905204541 81 20 0.9 2.6 0.00 0.00 0.00 41 1015.9
20260905203525 81 348 1.7 5.2 0.00 0.00 0.00 38 1016.0
20260905202525 81 341 2.6 6.1 0.00 0.00 0.00 38 1015.9
20260905201520 81 338 2.6 6.1 0.00 0.00 0.00 39 1015.8
20260905200521 81 347 2.6 3.5 0.00 0.00 0.00 39 1015.8
20260905195519 82 342 2.6 6.1 0.00 0.00 0.00 38 1015.7
20260905194520 82 350 2.6 6.1 0.00 0.00 0.00 37 1015.8
20260905193517 83 336 2.6 6.1 0.00 0.00 0.00 37 1015.8
20260905192520 83 333 2.6 7.0 0.00 0.00 0.00 36 1015.8
20260905191521 83 345 2.6 7.0 0.00 0.00 0.00 36 1015.7
20260905190539 83 342 3.5 7.8 0.00 0.00 0.00 36 1015.7
20260905185524 83 347 3.5 9.6 0.00 0.00 0.00 35 1015.7
20260905184525 84 338 5.2 11.3 0.00 0.00 0.00 35 1015.4
20260905183519 84 344 5.2 7.8 0.00 0.00 0.00 35 1015.4
20260905182520 84 340 4.3 9.6 0.00 0.00 0.00 35 1015.4
20260905181543 84 338 5.2 11.3 0.00 0.00 0.00 34 1015.2
20260905180518 84 334 4.3 9.6 0.00 0.00 0.00 34 1015.2
20260905175520 84 343 4.3 7.8 0.00 0.00 0.00 35 1015.2
20260905174525 84 336 4.3 7.8 0.00 0.00 0.00 36 1015.0
20260905173521 85 347 3.5 7.0 0.00 0.00 0.00 36 1015.0
20260905172524 85 347 4.3 11.3 0.00 0.00 0.00 35 1014.9
20260905171522 86 344 4.3 8.7 0.00 0.00 0.00 35 1014.7
20260905170524 86 342 5.2 8.7 0.00 0.00 0.00 35 1014.6
20260905165516 86 342 4.3 8.7 0.00 0.00 0.00 36 1014.4
20260905164521 86 347 3.5 7.8 0.00 0.00 0.00 37 1014.3
20260905163540 87 338 4.3 7.8 0.00 0.00 0.00 37 1014.3
20260905162537 87 350 2.6 7.0 0.00 0.00 0.00 38 1014.2
20260905161523 87 354 2.6 6.1 0.00 0.00 0.00 40 1014.2
20260905160521 88 353 3.5 7.8 0.00 0.00 0.00 38 1014.1
20260905155540 88 348 3.5 7.8 0.00 0.00 0.00 39 1014.1
20260905154525 88 353 3.5 7.0 0.00 0.00 0.00 40 1014.0
20260905153519 87 341 3.5 7.8 0.00 0.00 0.00 42 1014.0
20260905152520 86 344 2.6 6.1 0.00 0.00 0.00 50 1014.1
20260905151518 85 10 4.3 8.7 0.00 0.00 0.00 49 1014.1
20260905150522 86 13 4.3 8.7 0.00 0.00 0.00 48 1014.1
20260905145525 87 357 1.7 5.2 0.00 0.00 0.00 46 1014.0
20260905144522 87 14 3.5 7.0 0.00 0.00 0.00 44 1014.1
20260905143522 88 11 3.5 7.0 0.00 0.00 0.00 41 1014.2
20260905142517 88 18 5.2 11.3 0.00 0.00 0.00 37 1014.2
20260905141545 90 17 4.3 7.8 0.00 0.00 0.00 32 1014.2
20260905140517 91 358 3.5 7.0 0.00 0.00 0.00 27 1014.1
20260905135519 91 355 3.5 7.8 0.00 0.00 0.00 29 1014.2
20260905134525 90 353 4.3 7.8 0.00 0.00 0.00 30 1014.2
20260905133516 90 352 3.5 7.8 0.00 0.00 0.00 30 1014.3
20260905132524 90 351 4.3 8.7 0.00 0.00 0.00 30 1014.3
20260905131540 90 358 4.3 9.6 0.00 0.00 0.00 30 1014.4
20260905130523 90 347 4.3 8.7 0.00 0.00 0.00 30 1014.5
20260905125517 90 353 4.3 8.7 0.00 0.00 0.00 32 1014.5
20260905124516 90 347 5.2 13.0 0.00 0.00 0.00 31 1014.6
20260905123521 90 344 5.2 11.3 0.00 0.00 0.00 30 1014.7
20260905122520 89 345 6.1 11.3 0.00 0.00 0.00 32 1014.7
20260905121518 89 345 4.3 8.7 0.00 0.00 0.00 35 1014.8
20260905120524 89 1 4.3 8.7 0.00 0.00 0.00 36 1014.9
20260905115517 88 351 5.2 9.6 0.00 0.00 0.00 36 1015.0
20260905114520 88 6 4.3 7.8 0.00 0.00 0.00 38 1015.1
20260905113522 87 2 4.3 7.8 0.00 0.00 0.00 39 1015.3
20260905112537 87 352 5.2 11.3 0.00 0.00 0.00 40 1015.3
20260905111522 87 1 5.2 8.7 0.00 0.00 0.00 40 1015.4
20260905110518 86 348 4.3 7.8 0.00 0.00 0.00 41 1015.5
20260905105522 86 5 4.3 8.7 0.00 0.00 0.00 41 1015.6
20260905104519 86 356 5.2 9.6 0.00 0.00 0.00 43 1015.6
20260905103526 85 340 4.3 8.7 0.00 0.00 0.00 45 1015.8
20260905102540 85 345 6.1 9.6 0.00 0.00 0.00 45 1015.8
20260905101526 84 354 5.2 12.2 0.00 0.00 0.00 47 1016.0
20260905100520 84 355 6.1 12.2 0.00 0.00 0.00 48 1015.9
20260905095523 84 344 4.3 8.7 0.00 0.00 0.00 48 1016.0
20260905094518 84 348 4.3 9.6 0.00 0.00 0.00 49 1016.0
20260905093522 83 358 5.2 9.6 0.00 0.00 0.00 48 1016.0
20260905092536 83 5 5.2 11.3 0.00 0.00 0.00 49 1016.1
20260905091521 83 1 4.3 9.6 0.00 0.00 0.00 48 1016.1
20260905090524 84 342 5.2 9.6 0.00 0.00 0.00 47 1016.2
20260905085520 83 348 4.3 8.7 0.00 0.00 0.00 45 1016.2
20260905084516 83 348 4.3 7.8 0.00 0.00 0.00 46 1016.3
20260905083525 82 345 5.2 8.7 0.00 0.00 0.00 47 1016.4